Tracking 23731 objects as of 27-Sep-2021
HD Live streaming from Space Station
objects crossing your sky now

EUTE 8 WEST A (AB 2)

Track EUTE 8 WEST A (AB 2) now!
EUTE 8 WEST A (AB 2) is classified as:


NORAD ID: 26927
Int'l Code: 2001-042A
Perigee: 36,265.1 km
Apogee: 36,315.1 km
Inclination: 2.2 °
Period: 1,461.5 minutes
Semi major axis: 42661 km
RCS: 14.2528 m2 (large)
Launch date: September 25, 2001
Source: European Telecommunications Satellite Organization (EUTE)
Launch site: FRENCH GUIANA (FRGUI)

European and American coverage.
aabbcc
Your satellite tracking list
Your tracking list is empty




NASA's NSSDC Master Catalog

Two Line Element Set (TLE):
1 26927U 01042A   21269.53322086 -.00000062  00000-0  00000-0 0  9991
2 26927   2.1784  89.5912 0005858 139.8601 253.5211  0.98526879 73168
Source of the keplerian elements: AFSPC